Weather in Plessy

Russia / Pskov Oblast     57°08′59″N   29°37′27″E
temp.,
°C
wind,
m/s
gust,
m/s
humid.,
%
clouds,
%
prec.,
mm/h
press.,
hPa
HPBL,
m
25 may, wed
wed2500:00+5ene24640 0.0 101667
03:00+3e22910 0.0 101630
06:00+4ese12850 0.0 101770
09:00+12se22512 0.0 1016442
12:00+17sse11370 0.0 10151064
15:00+20s13364 0.0 10141832
18:00+20sse133921 0.0 10121631
21:00+14s246489 0.0 101290
26 may, thu
thu2600:00+10sse2280100 0.0 101139
03:00+9ssw119365 0.0 100915
06:00+11se2488100 0.1 1006107
09:00+11sse2697100 1.1 1004299
12:00+10w41098100 4.8 1004659
15:00+13wnw368257 5.8 1003916
18:00+14wnw378351 1.9 10011045
21:00+10w4109461 3.1 1001360
27 may, fri
fri2700:00+10w4998100 1.6 1001520
03:00+9wsw4998100 2.9 1001580
06:00+9w4997100 0.4 1001517
09:00+9wsw4994100 0.5 1002718
12:00+13wsw69635 0.8 10001453
15:00+16sw7943100 0.8 9992308
18:00+12sw5874100 0.3 9971154
21:00+9ssw3109743 1.9 996560
28 may, sat
sat2800:00+7sw71295100 0.5 9951152
03:00+7w4897100 5.8 9951023
06:00+7wsw5997100 4.1 996799
09:00+7w4996100 4.4 997954
12:00+8wsw5109599 0.8 998752
15:00+11wsw587095 1.6 9991340
18:00+11wsw4775100 0.6 1000988
21:00+8w229137 1.1 100137
29 may, sun
sun2900:00+5sw269888 0.0 1003140
03:00+6ssw2698100 0.0 1003185
06:00+7sw3898100 0.1 1004381
09:00+9sw3897100 0.2 1005582
12:00+9sw3897100 1.6 1006715
15:00+9wsw4998100 2.4 1008645
18:00+12wsw369298 0.8 1009702
21:00+10sw27965 1.1 1010168